Temperature
21 21 21 21 17 14 12 12 13 12 10 9 9 8 7 7 8 7 7 7 8 9 9 10 10 10 10 11 11 12 12 12 13 13 13 13 13 13 13 13 13 13 13 14 14 14 15 15 16
22 22 22 19 13 12 12 12 12 12 10 9 9 8 7 8 8 8 7 8 8 9 10 10 10 10 10 10 11 11 11 11 12 12 12 12 12 12 12 13 13 13 13 13 13 14 14 14 15
22 22 19 13 11 11 12 12 11 11 11 10 8 8 8 8 8 7 7 8 9 9 9 10 10 10 10 10 11 11 10 11 11 11 12 12 12 12 12 12 12 12 12 12 13 13 13 13 14
22 21 16 12 10 10 10 10 12 12 11 9 8 8 8 8 7 6 7 8 9 9 9 9 10 10 10 10 10 10 10 10 10 10 11 11 11 11 11 11 12 12 12 12 12 12 12 13 13
22 18 12 10 10 10 10 10 10 10 10 8 8 7 7 7 7 7 8 8 8 9 9 9 9 9 9 9 10 10 9 9 9 9 9 9 10 11 10 11 11 11 11 11 11 11 12 12 13
21 15 12 10 11 11 10 10 10 9 9 9 8 7 6 6 7 7 7 8 8 8 8 9 9 9 9 9 9 9 8 8 8 8 8 8 8 8 8 9 10 10 10 11 11 11 11 12 12
18 12 11 10 11 11 11 10 9 8 8 8 8 7 6 6 6 7 7 8 8 8 8 8 8 8 8 8 7 7 7 6 6 6 6 6 6 6 6 7 8 8 9 9 9 10 11 11 11
20 13 12 11 11 10 10 9 8 8 8 8 8 7 5 5 6 7 7 7 7 7 7 7 7 7 7 6 6 5 5 5 4 4 4 4 5 5 5 6 6 6 7 7 8 9 10 10 11
19 11 11 12 11 10 10 9 8 7 7 6 6 5 5 6 7 7 7 7 7 7 6 6 6 5 5 4 4 4 3 3 3 3 2 3 3 4 4 4 4 4 5 5 6 7 8 9 10
15 10 11 12 11 10 10 9 8 7 6 5 5 5 6 6 7 7 7 6 6 5 5 5 4 3 3 3 2 2 2 2 2 1 1 1 1 2 2 3 3 3 3 4 5 5 6 7 8
12 10 11 11 11 10 9 8 8 7 5 5 5 5 6 6 6 6 6 5 5 4 3 2 2 2 2 2 1 1 1 1 1 0 -0 -0 -0 0 1 1 2 2 2 3 3 4 5 5 6
11 11 11 11 11 10 9 8 7 7 6 6 6 6 6 6 5 5 5 5 4 3 2 1 2 2 2 1 1 1 1 1 0 -0 -1 -1 -1 -1 -1 -1 -0 -0 -0 1 1 2 3 4 4
9 10 10 11 11 9 9 7 7 6 6 6 6 6 5 5 5 5 4 4 3 2 2 2 2 2 1 1 1 1 0 -0 -1 -1 -2 -2 -2 -2 -2 -2 -2 -2 -2 -1 -0 0 1 2 3
10 9 9 10 10 8 7 7 7 6 6 6 6 5 5 5 5 4 4 3 3 2 2 1 1 1 1 1 0 -0 -0 -1 -1 -2 -2 -3 -3 -3 -3 -3 -4 -4 -4 -3 -3 -2 -1 -0 1
11 9 9 10 9 8 8 7 7 6 6 6 5 5 5 4 4 4 4 3 2 2 1 1 1 0 0 0 -0 -1 -1 -2 -2 -2 -3 -3 -3 -4 -4 -4 -5 -5 -5 -5 -4 -4 -3 -2 -1
11 9 10 10 9 9 8 7 7 7 6 6 5 4 4 4 4 3 3 3 2 2 1 0 -0 0 -0 -0 -1 -1 -2 -2 -3 -3 -3 -4 -4 -5 -5 -5 -6 -6 -6 -6 -6 -6 -5 -4 -3
12 11 11 10 9 9 8 7 7 7 7 6 5 4 4 3 3 3 3 3 2 1 0 -0 -0 -1 -1 -1 -1 -1 -2 -3 -3 -4 -4 -5 -5 -5 -6 -6 -7 -7 -7 -7 -7 -7 -7 -6 -5
14 13 11 10 10 9 8 6 6 7 7 6 5 5 4 3 3 3 3 2 2 1 -0 -1 -1 -1 -1 -1 -1 -2 -2 -3 -4 -4 -5 -5 -6 -6 -7 -7 -8 -8 -8 -8 -8 -8 -7 -7 -7
15 14 12 10 11 10 7 5 5 7 7 6 5 5 4 3 3 3 2 2 1 0 -1 -2 -2 -2 -2 -2 -3 -3 -3 -4 -5 -5 -6 -6 -7 -7 -7 -8 -8 -9 -9 -9 -9 -9 -8 -8 -7
15 14 11 10 10 10 8 5 5 6 6 6 6 5 4 3 3 2 2 2 1 -1 -2 -2 -2 -3 -3 -4 -4 -5 -5 -5 -6 -6 -7 -7 -8 -8 -9 -9 -9 -10 -10 -10 -10 -9 -9 -9 -8
12 13 12 11 9 9 8 7 5 5 6 6 6 5 4 4 3 2 2 1 -0 -2 -2 -3 -3 -4 -4 -4 -5 -5 -5 -6 -6 -7 -8 -8 -9 -9 -9 -10 -10 -10 -10 -11 -10 -10 -10 -9 -8
14 13 13 11 9 8 9 8 5 4 4 5 5 4 4 3 3 2 1 -0 -1 -2 -3 -3 -4 -4 -5 -5 -6 -6 -7 -8 -8 -9 -9 -9 -9 -9 -10 -10 -11 -11 -11 -11 -11 -11 -10 -10 -9
13 13 12 12 11 9 8 7 6 4 4 4 4 4 3 3 2 2 0 -1 -2 -3 -3 -4 -4 -5 -5 -6 -7 -7 -8 -9 -9 -9 -10 -10 -10 -10 -11 -11 -11 -11 -11 -11 -11 -11 -10 -10 -9
13 12 11 9 8 9 9 6 7 3 4 3 3 3 3 2 2 1 -0 -1 -2 -3 -4 -4 -5 -5 -6 -7 -7 -8 -9 -9 -10 -10 -11 -11 -11 -11 -11 -12 -12 -12 -12 -12 -12 -11 -11 -10 -9
11 11 11 11 10 10 10 8 7 4 3 3 3 3 2 2 1 1 -0 -2 -3 -4 -4 -5 -5 -6 -6 -7 -8 -9 -9 -10 -11 -11 -12 -12 -12 -12 -12 -13 -13 -13 -13 -12 -12 -11 -11 -10 -10
12 12 11 12 10 9 10 9 5 4 4 5 4 3 2 2 1 0 -1 -3 -3 -4 -5 -5 -6 -6 -7 -8 -8 -9 -10 -11 -11 -12 -12 -12 -13 -13 -13 -13 -13 -13 -13 -12 -12 -12 -11 -10 -10
12 10 10 9 9 8 8 7 5 4 3 3 2 2 2 1 1 -1 -2 -3 -4 -5 -5 -5 -6 -6 -7 -8 -9 -10 -11 -11 -12 -12 -13 -13 -13 -14 -14 -14 -14 -14 -13 -13 -12 -12 -11 -10 -10
12 10 8 9 10 9 8 8 7 3 3 2 2 2 1 0 -1 -2 -3 -4 -4 -5 -5 -6 -6 -7 -8 -9 -10 -11 -11 -12 -12 -13 -13 -13 -14 -14 -14 -14 -14 -14 -13 -13 -13 -12 -11 -10 -9
12 12 10 8 8 8 7 9 7 4 3 2 2 2 1 -0 -1 -2 -4 -4 -5 -5 -5 -6 -6 -7 -9 -10 -11 -11 -11 -12 -13 -13 -13 -14 -14 -14 -14 -14 -14 -14 -13 -13 -12 -12 -11 -10 -9
11 11 9 9 9 7 6 8 5 3 4 3 2 1 0 -1 -2 -3 -4 -4 -4 -5 -5 -6 -7 -8 -9 -10 -11 -11 -12 -12 -13 -13 -14 -14 -14 -14 -14 -14 -14 -13 -13 -13 -12 -11 -10 -10 -9
Wind_Speed
13 10 4 5 9 11 8 7 4 7 5 5 8 10 10 8 8 9 3 12 17 21 26 28 31 31 31 31 32 31 31 32 31 32 32 32 31 31 30 30 30 29 28 26 24 21 18 17 16
7 5 7 7 8 8 6 5 8 5 10 9 8 7 8 8 4 5 6 13 21 24 27 28 30 31 31 31 31 31 31 31 31 31 31 31 31 31 30 30 30 29 29 29 28 25 23 20 18
3 8 7 7 7 5 5 3 9 11 10 5 6 6 6 5 4 5 8 16 23 25 27 28 30 31 31 31 31 31 31 31 31 31 31 31 31 31 31 30 30 30 29 29 28 28 27 24 21
5 8 8 10 12 6 4 5 4 5 9 9 6 7 6 6 5 6 12 21 21 23 26 28 31 32 31 30 31 31 31 31 31 31 31 31 31 31 30 30 31 30 30 29 29 28 28 27 25
6 7 9 7 7 4 5 10 10 8 6 7 6 8 6 8 9 10 15 20 18 20 25 27 31 32 31 31 31 31 31 31 31 31 31 31 31 32 31 31 31 31 30 30 29 28 29 29 28
6 7 8 6 5 4 4 6 5 8 6 5 7 7 6 7 10 10 16 18 20 21 24 27 31 32 32 31 31 31 31 31 31 31 31 30 31 32 31 32 32 31 31 30 29 29 30 29 28
7 6 7 8 6 3 3 4 6 5 7 6 3 7 6 8 7 8 14 17 19 21 24 26 28 29 30 29 30 31 30 31 31 31 31 30 30 31 30 32 32 32 31 30 30 30 30 30 28
6 7 7 6 6 4 2 4 5 6 5 5 5 7 6 4 6 8 11 12 15 19 22 25 27 28 28 26 28 30 30 31 31 31 31 30 29 29 29 31 32 32 31 30 30 31 31 30 28
6 7 5 4 8 7 6 5 5 7 11 10 8 9 7 6 9 10 10 10 11 16 19 24 25 28 28 25 25 27 27 28 28 28 29 28 26 26 26 30 31 31 31 30 31 31 30 29 27
7 6 2 1 7 8 7 7 7 6 9 9 9 8 9 10 10 11 11 12 12 14 14 22 24 26 26 23 22 22 23 25 25 26 26 24 24 25 26 28 29 30 30 30 30 31 28 25 23
7 7 5 7 9 9 7 5 5 9 6 6 9 7 7 9 8 9 8 8 8 9 12 18 20 23 22 21 20 20 21 22 23 25 25 24 23 23 24 23 24 25 25 24 26 25 23 22 22
8 8 6 6 6 6 6 5 6 4 7 10 10 9 8 8 7 7 7 7 7 9 10 13 16 20 21 20 20 20 20 21 21 23 25 23 20 20 21 20 22 22 21 22 22 20 22 22 22
7 5 5 9 14 10 10 8 8 8 10 11 11 10 9 8 6 6 7 7 7 7 8 10 15 20 21 20 21 20 21 21 22 22 23 25 21 19 20 20 20 21 21 21 20 19 20 19 20
7 9 9 8 9 4 10 7 7 8 10 10 10 9 8 7 6 6 6 6 6 7 8 11 15 21 21 20 20 19 21 22 21 21 23 25 23 21 20 19 19 19 22 22 20 20 16 15 16
8 8 6 4 5 5 8 4 4 9 10 10 9 9 8 6 7 7 6 6 5 5 7 10 15 19 19 18 19 19 20 21 20 21 23 25 24 23 21 17 16 19 22 22 20 18 16 13 13
6 6 3 5 7 7 5 4 6 8 10 9 8 8 7 5 6 6 6 6 5 6 7 9 16 17 17 17 18 18 18 19 19 20 22 24 24 24 21 17 15 21 21 19 15 10 13 13 13
2 2 3 5 8 7 6 5 8 7 10 9 8 8 7 6 6 5 5 6 5 5 6 7 11 13 15 16 16 16 16 17 18 20 21 23 24 24 22 17 18 21 18 15 13 13 13 14 14
3 5 4 6 7 7 6 6 8 7 8 9 8 8 7 7 6 5 5 4 4 5 6 6 9 12 14 14 14 13 13 15 17 19 21 23 23 24 22 17 19 19 13 11 12 14 14 13 14
3 2 4 5 3 4 6 7 10 7 7 8 7 7 7 6 6 5 3 2 4 7 7 7 8 8 11 8 9 10 10 9 13 18 21 22 23 23 21 18 18 17 11 12 14 14 15 13 13
4 4 3 3 2 2 2 6 7 6 7 8 8 8 8 6 6 4 2 3 6 5 6 6 7 7 9 8 8 7 7 7 13 16 18 21 22 22 20 19 16 15 10 12 13 14 12 13 12
5 3 2 4 2 1 1 1 5 4 4 5 5 6 7 7 6 3 2 3 3 3 5 8 7 7 10 12 11 11 5 5 6 7 9 19 21 21 20 20 18 16 10 11 13 13 14 14 13
0 3 2 3 2 3 2 5 6 7 5 5 5 6 6 6 5 3 2 1 1 3 4 6 7 6 9 12 8 10 10 9 9 8 8 17 20 20 20 21 19 16 13 11 12 13 13 14 13
4 3 3 1 2 2 1 3 5 5 7 7 6 6 6 6 5 3 2 1 1 4 5 6 7 6 8 10 8 9 9 8 9 10 10 9 15 18 20 20 18 16 13 10 11 13 13 12 13
2 3 2 4 3 3 5 5 6 6 7 7 7 7 7 6 5 3 2 2 4 5 6 6 7 7 7 8 8 9 10 11 13 13 11 10 8 12 18 20 18 17 14 12 12 11 14 13 14
7 6 6 6 4 5 3 5 6 4 5 8 9 8 7 6 4 2 4 6 6 7 7 7 8 8 8 8 9 9 9 10 12 13 12 13 11 10 11 18 16 15 16 16 14 12 13 14 14
4 4 3 3 5 7 4 6 5 5 4 6 8 8 7 5 3 4 5 5 6 7 8 8 8 8 9 9 9 8 8 8 9 11 12 12 12 11 15 18 18 18 18 18 14 12 13 12 13
2 2 5 4 3 5 7 7 5 4 5 6 7 7 6 5 4 4 5 6 6 7 7 8 8 8 9 10 10 9 8 9 11 10 10 9 12 16 19 19 17 17 17 15 12 11 13 13 13
2 5 5 2 3 6 8 7 5 10 12 9 8 7 6 4 3 4 5 5 5 6 6 7 8 8 9 10 9 13 10 11 12 11 12 12 14 17 16 15 14 14 14 13 12 12 13 14 13
2 2 3 3 4 3 6 8 4 10 11 10 9 8 7 5 3 3 4 4 5 6 7 8 8 9 10 10 10 11 11 11 12 10 11 12 13 16 14 14 14 15 15 13 13 14 15 14 14
2 4 5 2 4 4 4 8 1 7 8 9 9 8 7 6 4 2 3 4 6 7 8 9 9 10 10 10 10 11 11 11 12 12 12 15 13 16 16 15 15 16 16 15 15 15 15 14 14
Wind_Direction
333 351 54 56 61 61 57 15 41 120 74 60 65 79 87 68 80 107 318 353 8 14 9 6 12 12 13 15 16 17 17 17 17 17 16 14 13 12 11 10 7 4 359 353 346 336 323 313 308
343 31 48 55 68 68 54 10 54 88 141 134 81 75 74 75 60 71 13 15 29 24 13 8 14 13 13 14 15 14 15 15 14 15 14 13 11 10 9 7 5 2 360 356 352 346 336 322 309
52 56 61 60 65 82 92 36 91 77 87 97 84 56 62 54 41 52 24 35 34 26 15 9 15 13 13 14 14 13 13 13 12 12 11 10 9 7 6 5 2 360 358 356 353 350 345 335 322
78 53 62 69 76 43 39 320 245 99 66 48 95 64 60 28 50 59 46 44 36 27 18 12 15 14 13 13 14 12 12 12 10 9 8 7 7 5 3 3 360 357 356 354 352 350 348 344 335
64 70 73 67 73 65 29 17 46 56 65 38 76 87 61 20 62 58 50 44 35 26 21 16 16 14 13 13 13 12 12 11 9 8 7 6 5 2 1 1 357 355 353 352 350 350 348 345 342
64 68 82 93 107 113 50 26 52 53 76 67 82 98 64 19 54 49 49 43 37 28 22 19 16 14 12 11 12 11 11 10 9 7 6 6 4 1 360 359 355 353 351 350 349 349 347 344 342
88 77 89 112 120 108 120 74 46 51 55 28 78 94 91 31 48 53 49 40 35 31 25 19 17 13 10 9 10 9 9 8 8 6 5 5 4 1 360 357 353 352 350 350 349 348 345 343 341
97 93 92 113 133 154 117 77 69 51 59 28 61 98 93 53 51 49 44 36 32 30 25 19 17 13 7 4 8 8 7 6 6 5 4 5 4 1 359 355 352 351 349 350 349 347 344 343 340
68 76 98 148 157 152 135 101 67 50 71 60 61 86 108 85 56 46 36 31 28 25 22 19 17 12 6 4 4 5 5 4 4 2 3 5 3 359 358 352 351 350 348 349 347 345 344 343 339
55 92 106 331 143 133 118 105 122 94 77 76 79 80 81 67 56 48 36 26 22 19 15 18 18 10 4 2 357 4 2 1 360 360 2 4 2 358 357 351 350 348 346 346 344 344 344 342 337
61 98 94 64 89 101 100 88 96 121 93 127 126 115 91 76 64 59 47 37 28 19 15 12 17 8 3 359 357 5 1 360 358 359 2 4 2 359 355 352 348 344 344 344 341 341 340 338 334
80 59 82 99 79 79 90 97 81 97 139 145 136 131 114 95 81 74 60 45 35 26 10 2 17 10 4 4 360 6 2 360 357 356 1 3 1 358 355 351 345 343 342 341 338 334 333 334 331
76 84 53 79 76 79 88 91 105 122 141 138 128 121 122 121 110 90 77 62 47 27 7 1 18 14 8 8 4 3 1 358 354 355 359 2 359 356 353 348 344 342 342 339 333 331 330 331 328
99 96 98 88 87 91 110 114 115 162 154 137 131 132 137 134 126 97 75 61 45 27 13 5 17 13 7 7 2 0 358 355 354 355 357 360 356 354 351 345 342 343 341 335 331 325 327 326 324
95 89 90 125 110 133 122 86 165 169 153 145 144 146 145 136 120 108 99 81 54 35 21 12 13 8 4 4 0 356 353 353 353 353 356 357 355 353 349 341 342 343 340 335 332 325 327 322 321
97 102 128 198 158 176 144 186 205 175 154 159 160 156 151 139 124 122 109 95 65 41 30 19 11 3 0 358 354 350 350 351 351 353 355 355 354 352 347 340 343 342 340 338 332 329 327 322 319
118 153 194 194 195 181 182 196 212 186 160 165 170 169 161 147 133 127 110 96 70 47 33 17 5 358 354 351 349 346 348 349 350 352 354 353 352 349 345 339 343 343 340 337 333 332 326 322 319
222 217 192 208 205 179 185 192 197 193 163 165 170 170 164 155 152 140 110 95 70 43 31 15 358 354 352 351 349 348 349 350 350 351 352 352 350 347 344 343 343 342 339 336 332 328 326 320 318
234 149 174 216 210 197 200 185 199 193 156 161 173 169 160 153 137 128 117 99 50 32 17 5 353 346 353 352 353 349 347 343 345 348 347 348 347 345 342 344 340 339 335 331 329 329 324 323 321
72 107 150 232 238 229 203 203 202 196 180 178 176 168 162 146 137 147 125 59 41 16 352 355 352 345 350 346 339 334 325 323 334 335 339 343 343 342 343 340 336 335 332 328 330 327 326 322 324
53 98 202 222 207 249 199 238 187 216 179 180 155 149 152 146 148 155 84 58 21 346 343 2 350 342 345 344 342 341 324 317 330 330 335 338 337 336 336 334 332 332 330 327 326 323 326 320 316
238 215 222 164 147 285 170 294 214 200 203 194 164 143 138 133 141 137 92 84 316 324 341 352 345 338 341 345 346 346 346 336 331 328 323 328 331 331 334 331 330 330 327 323 323 326 318 316 313
262 244 227 173 177 313 246 239 277 171 213 211 187 165 152 152 149 134 140 168 356 350 351 345 339 332 336 341 339 336 331 324 324 325 322 321 325 328 331 328 329 328 325 320 318 319 317 315 309
311 38 72 62 78 303 217 185 257 203 212 185 173 166 161 161 150 136 112 42 6 356 348 342 338 331 332 335 332 330 328 327 329 330 328 328 323 324 326 327 327 325 323 320 317 317 314 311 308
40 52 17 353 354 272 204 197 253 212 200 169 168 172 168 163 153 95 41 16 356 350 344 339 338 334 336 336 333 328 328 325 325 328 329 329 328 327 319 325 323 321 320 318 317 315 312 309 307
358 103 121 271 272 293 314 249 260 212 194 153 150 156 158 153 117 66 43 12 351 347 343 341 341 340 339 338 334 326 326 326 325 323 325 325 325 322 319 322 318 317 318 318 314 311 308 307 306
82 116 161 157 288 283 283 282 287 213 209 167 155 155 156 136 90 62 32 11 357 348 344 341 343 343 340 337 330 329 326 321 319 317 318 321 322 323 323 319 315 314 314 311 310 308 306 306 303
149 147 96 128 298 294 292 283 248 205 213 195 179 172 157 134 94 59 23 2 350 342 339 342 346 341 333 331 328 339 324 319 319 320 322 322 321 321 318 317 315 313 312 309 308 306 304 304 302
178 191 150 141 179 223 289 277 233 197 190 186 184 172 162 153 114 53 6 348 341 341 344 346 345 340 334 329 323 325 323 322 322 321 321 320 319 319 319 319 316 314 311 309 307 304 303 302 303
237 213 160 189 259 212 245 277 71 159 160 158 159 157 157 142 116 64 351 341 343 347 348 349 344 338 332 328 328 329 326 324 325 323 321 321 319 321 322 321 318 316 314 311 306 302 301 299 300
Height
1542 1541 1541 1542 1551 1573 1595 1600 1596 1599 1602 1605 1602 1603 1608 1614 1618 1629 1629 1622 1618 1614 1611 1607 1603 1599 1596 1592 1588 1585 1582 1578 1575 1572 1569 1566 1563 1561 1558 1555 1553 1551 1548 1546 1544 1543 1541 1540 1538
1542 1542 1543 1546 1568 1593 1605 1603 1600 1598 1602 1604 1604 1608 1611 1616 1621 1625 1625 1622 1618 1615 1611 1607 1604 1600 1596 1593 1589 1585 1582 1578 1575 1571 1568 1565 1562 1559 1556 1553 1551 1548 1546 1543 1541 1539 1538 1536 1535
1543 1543 1547 1561 1587 1602 1605 1604 1602 1601 1603 1603 1607 1611 1615 1621 1625 1626 1625 1622 1619 1615 1612 1608 1604 1600 1597 1593 1589 1585 1581 1577 1574 1570 1567 1563 1560 1557 1554 1551 1548 1546 1543 1541 1538 1536 1534 1533 1531
1545 1547 1559 1579 1599 1606 1606 1605 1601 1599 1601 1605 1608 1615 1622 1626 1627 1627 1624 1622 1618 1615 1611 1608 1604 1600 1596 1592 1588 1584 1580 1576 1572 1568 1564 1561 1558 1554 1551 1548 1545 1542 1540 1537 1535 1533 1530 1529 1527
1546 1552 1574 1596 1605 1608 1607 1604 1600 1601 1605 1609 1610 1619 1626 1629 1628 1626 1624 1621 1618 1614 1611 1607 1603 1599 1595 1591 1586 1582 1578 1573 1569 1565 1561 1557 1554 1551 1547 1544 1541 1538 1536 1533 1530 1528 1526 1524 1523
1550 1560 1586 1605 1608 1608 1608 1607 1605 1607 1610 1612 1615 1620 1630 1631 1627 1626 1624 1621 1618 1614 1610 1607 1602 1598 1594 1589 1584 1580 1575 1571 1566 1562 1557 1553 1549 1546 1542 1539 1537 1533 1531 1528 1525 1523 1521 1520 1518
1555 1572 1594 1605 1608 1608 1609 1609 1609 1611 1612 1614 1616 1621 1629 1629 1627 1626 1624 1621 1617 1613 1609 1605 1601 1596 1592 1587 1582 1577 1573 1568 1563 1558 1554 1549 1545 1541 1538 1534 1532 1528 1525 1522 1519 1517 1515 1514 1512
1559 1573 1593 1601 1606 1608 1609 1611 1613 1614 1615 1617 1618 1622 1628 1629 1627 1625 1623 1620 1616 1612 1608 1603 1599 1594 1589 1584 1580 1575 1570 1565 1560 1556 1551 1546 1542 1538 1534 1530 1527 1523 1520 1516 1513 1511 1509 1507 1506
1563 1581 1598 1598 1602 1606 1609 1612 1616 1618 1617 1618 1620 1623 1627 1627 1626 1624 1621 1618 1614 1610 1606 1601 1596 1591 1587 1582 1577 1572 1568 1563 1558 1553 1548 1544 1539 1535 1530 1527 1523 1519 1515 1511 1508 1505 1502 1500 1500
1569 1591 1597 1597 1598 1603 1608 1612 1616 1620 1620 1623 1624 1625 1626 1626 1624 1622 1619 1616 1612 1608 1604 1600 1595 1589 1584 1579 1574 1569 1565 1560 1555 1550 1545 1540 1536 1532 1528 1523 1519 1514 1510 1506 1503 1500 1497 1494 1493
1581 1594 1598 1600 1601 1604 1608 1613 1616 1618 1622 1623 1623 1625 1625 1625 1623 1621 1619 1616 1612 1609 1604 1598 1593 1587 1582 1576 1572 1567 1562 1557 1553 1548 1542 1537 1533 1528 1524 1519 1515 1510 1505 1501 1498 1495 1491 1488 1486
1589 1597 1600 1604 1605 1607 1610 1613 1616 1618 1620 1622 1623 1624 1624 1624 1622 1620 1618 1616 1612 1608 1602 1596 1591 1586 1581 1576 1571 1565 1560 1555 1550 1546 1540 1534 1529 1524 1519 1515 1511 1506 1501 1497 1494 1490 1486 1483 1481
1594 1601 1604 1606 1607 1610 1612 1614 1616 1620 1621 1622 1623 1623 1623 1623 1622 1620 1618 1615 1611 1606 1601 1596 1590 1585 1580 1575 1570 1565 1559 1554 1549 1544 1539 1533 1527 1521 1516 1512 1507 1503 1498 1494 1489 1485 1481 1478 1475
1598 1602 1607 1609 1610 1613 1614 1617 1618 1621 1621 1622 1622 1622 1622 1622 1621 1619 1617 1613 1609 1605 1601 1596 1590 1585 1580 1574 1569 1564 1558 1553 1548 1543 1537 1531 1526 1520 1514 1509 1504 1499 1495 1490 1486 1481 1476 1472 1469
1602 1606 1610 1612 1612 1615 1616 1619 1618 1619 1620 1621 1622 1622 1622 1621 1620 1618 1615 1612 1609 1605 1600 1594 1589 1584 1579 1573 1568 1563 1558 1552 1547 1541 1535 1529 1523 1518 1512 1507 1501 1496 1491 1486 1482 1477 1472 1468 1463
1604 1609 1612 1613 1613 1614 1618 1620 1618 1619 1620 1620 1621 1621 1621 1620 1618 1617 1614 1611 1608 1604 1599 1593 1588 1583 1577 1572 1567 1562 1556 1551 1545 1539 1533 1527 1521 1515 1509 1504 1499 1493 1488 1483 1478 1473 1468 1463 1458
1604 1609 1608 1612 1611 1611 1614 1617 1617 1618 1618 1619 1620 1620 1619 1619 1617 1615 1613 1610 1607 1602 1597 1592 1586 1581 1575 1570 1565 1560 1554 1548 1542 1536 1530 1524 1518 1512 1507 1501 1496 1490 1485 1480 1475 1470 1465 1459 1454
1600 1603 1607 1610 1608 1609 1612 1614 1615 1616 1617 1618 1619 1619 1619 1618 1616 1614 1612 1609 1605 1601 1596 1590 1584 1578 1573 1567 1562 1557 1551 1545 1540 1534 1527 1521 1515 1509 1504 1498 1493 1487 1482 1476 1472 1467 1462 1458 1452
1594 1597 1605 1606 1604 1606 1610 1614 1614 1614 1616 1617 1618 1618 1618 1616 1615 1613 1611 1608 1604 1600 1594 1588 1582 1576 1570 1564 1557 1551 1546 1541 1535 1530 1525 1519 1512 1506 1501 1495 1489 1484 1479 1474 1469 1464 1459 1454 1450
1593 1599 1605 1606 1605 1606 1609 1612 1612 1613 1614 1615 1616 1616 1616 1615 1614 1612 1609 1606 1602 1597 1592 1586 1580 1574 1568 1562 1556 1551 1545 1539 1533 1527 1522 1516 1509 1503 1498 1492 1486 1481 1475 1470 1466 1461 1456 1451 1449
1599 1598 1601 1603 1606 1606 1608 1611 1615 1614 1614 1615 1615 1614 1614 1614 1613 1611 1608 1605 1600 1595 1590 1584 1578 1573 1567 1561 1555 1548 1541 1535 1529 1522 1517 1512 1506 1500 1495 1489 1483 1478 1472 1467 1462 1458 1454 1449 1446
1598 1597 1597 1600 1606 1609 1607 1612 1612 1613 1613 1613 1613 1613 1613 1612 1611 1609 1606 1602 1598 1593 1588 1583 1577 1571 1565 1559 1552 1545 1538 1531 1525 1519 1513 1508 1503 1497 1491 1485 1479 1474 1468 1463 1459 1455 1451 1447 1443
1597 1595 1596 1598 1602 1607 1609 1613 1609 1612 1612 1611 1611 1611 1611 1611 1609 1607 1604 1600 1596 1591 1586 1581 1575 1569 1563 1557 1550 1543 1537 1530 1523 1517 1510 1504 1498 1493 1487 1481 1475 1470 1464 1459 1455 1451 1447 1444 1440
1595 1597 1598 1603 1608 1609 1604 1614 1601 1610 1606 1606 1608 1609 1609 1609 1607 1605 1602 1598 1594 1589 1584 1578 1572 1567 1560 1554 1548 1541 1534 1527 1520 1512 1505 1499 1493 1487 1482 1477 1471 1465 1460 1454 1450 1446 1442 1439 1436
1598 1604 1610 1606 1609 1604 1598 1604 1598 1602 1601 1602 1604 1606 1607 1606 1605 1602 1600 1596 1592 1587 1581 1576 1570 1564 1558 1552 1545 1539 1532 1525 1518 1510 1502 1495 1488 1482 1477 1472 1466 1461 1455 1450 1445 1441 1437 1434 1431
1600 1602 1613 1615 1615 1609 1597 1598 1600 1600 1600 1601 1602 1604 1604 1604 1602 1600 1598 1594 1589 1584 1579 1573 1567 1561 1555 1549 1543 1537 1530 1523 1516 1509 1501 1493 1486 1479 1473 1468 1462 1456 1451 1445 1440 1436 1432 1429 1426
1600 1607 1606 1616 1616 1616 1604 1598 1600 1600 1600 1601 1601 1602 1602 1601 1601 1599 1596 1592 1588 1583 1577 1571 1565 1559 1553 1547 1541 1534 1528 1521 1513 1506 1498 1491 1483 1476 1470 1464 1458 1452 1446 1441 1436 1431 1428 1425 1422
1600 1604 1613 1613 1615 1616 1606 1597 1593 1597 1597 1598 1599 1599 1600 1600 1599 1597 1594 1590 1586 1581 1575 1570 1564 1558 1552 1546 1539 1532 1525 1518 1510 1503 1495 1488 1481 1474 1467 1460 1453 1447 1441 1436 1431 1427 1424 1421 1418
1601 1602 1605 1614 1616 1618 1615 1595 1584 1586 1588 1592 1595 1597 1598 1598 1597 1595 1592 1588 1584 1579 1573 1568 1562 1556 1550 1543 1536 1529 1522 1515 1508 1501 1494 1486 1479 1471 1464 1457 1450 1443 1437 1431 1427 1423 1420 1417 1414
1599 1599 1604 1611 1610 1615 1616 1596 1585 1584 1585 1589 1592 1595 1596 1596 1595 1593 1590 1586 1582 1576 1571 1566 1560 1554 1548 1541 1534 1527 1520 1513 1506 1499 1492 1485 1478 1470 1463 1455 1447 1440 1433 1427 1422 1418 1416 1413 1411